Location: Port Huron
(43.0000°N, 82.2400°W)
Time: 23:04:55
(UTC-05:00)

ISS - Visible Passes

Search period start: 24 February 2018 00:00
Search period end: 06 March 2018 00:00
Orbit: 402 x 407 km, 51.6° (Epoch: 25 February)

Date Brightness Start Highest point End Pass type
(mag) Time Alt. Az. Time Alt. Az. Time Alt. Az.
26 Feb -2.4 06:33:26 10° SSW 06:36:30 39° SE 06:39:36 10° ENE visible
27 Feb -1.5 05:41:50 10° S 05:44:23 21° SE 05:46:58 10° E visible
28 Feb -0.9 04:51:50 11° SE 04:52:21 12° SE 04:53:33 10° ESE visible
28 Feb -3.9 06:25:05 10° WSW 06:28:21 89° NW 06:31:39 10° ENE visible
01 Mar -3.1 05:34:47 29° SSW 05:36:07 49° SE 05:39:18 10° ENE visible
02 Mar -1.5 04:44:53 22° ESE 04:44:53 22° ESE 04:46:44 10° ENE visible
02 Mar -3.3 06:17:33 13° W 06:20:17 43° NNW 06:23:26 10° NE visible
03 Mar -3.9 05:27:32 63° W 05:27:55 73° NNW 05:31:11 10° NE visible
04 Mar -1.4 04:37:24 24° ENE 04:37:24 24° ENE 04:38:51 10° ENE visible
04 Mar -2.5 06:10:03 14° WNW 06:12:17 27° NNW 06:15:09 10° NE visible
05 Mar -3.0 05:19:50 37° NNW 05:19:50 37° NNW 05:22:54 10° NE visible
